| time (UTC) | temp F | wind direction | speed MPH | gust MPH | rain 1hr in | rain 24hr in | rain mn in | humidity % | barometer mb |
| 20260507035534 | 43 | 296 | 3.0 | 5.0 | 0.00 | 0.05 | 0.00 | 94 | 1013.9 |
| 20260507035032 | 43 | 318 | 3.0 | 6.0 | 0.00 | 0.05 | 0.00 | 94 | 1013.8 |
| 20260507034532 | 43 | 326 | 4.0 | 6.0 | 0.00 | 0.05 | 0.00 | 94 | 1013.8 |
| 20260507034032 | 43 | 324 | 4.0 | 5.0 | 0.00 | 0.05 | 0.00 | 94 | 1013.8 |
| 20260507033813 | 43 | 321 | 3.0 | 5.0 | 0.00 | 0.05 | 0.00 | 94 | 1013.8 |
| 20260507033031 | 43 | 338 | 3.0 | 6.0 | 0.00 | 0.05 | 0.00 | 95 | 1013.8 |
| 20260507032531 | 43 | 320 | 4.0 | 6.0 | 0.00 | 0.05 | 0.00 | 95 | 1013.8 |
| 20260507032031 | 43 | 329 | 4.0 | 6.0 | 0.00 | 0.05 | 0.00 | 95 | 1013.7 |
| 20260507031531 | 44 | 323 | 4.0 | 6.0 | 0.00 | 0.05 | 0.00 | 95 | 1013.7 |
| 20260507031308 | 44 | 329 | 4.0 | 6.0 | 0.00 | 0.05 | 0.00 | 96 | 1013.7 |
| 20260507031033 | 44 | 321 | 4.0 | 6.0 | 0.00 | 0.05 | 0.00 | 95 | 1013.7 |
| 20260507030032 | 43 | 347 | 4.0 | 6.0 | 0.00 | 0.05 | 0.00 | 96 | 1013.6 |
| 20260507025804 | 43 | 327 | 4.0 | 7.0 | 0.00 | 0.05 | 0.00 | 95 | 1013.7 |
| 20260507025031 | 44 | 335 | 4.0 | 7.0 | 0.00 | 0.05 | 0.00 | 95 | 1013.7 |
| 20260507024531 | 44 | 325 | 4.0 | 7.0 | 0.00 | 0.05 | 0.00 | 95 | 1013.6 |
| 20260507024030 | 44 | 332 | 4.0 | 6.0 | 0.00 | 0.05 | 0.00 | 95 | 1013.6 |
| 20260507023527 | 44 | 340 | 4.0 | 6.0 | 0.00 | 0.05 | 0.00 | 95 | 1013.6 |
| 20260507023027 | 44 | 345 | 4.0 | 6.0 | 0.00 | 0.06 | 0.00 | 95 | 1013.5 |
| 20260507022528 | 44 | 329 | 4.0 | 6.0 | 0.00 | 0.06 | 0.00 | 95 | 1013.5 |
| 20260507022027 | 44 | 307 | 4.0 | 6.0 | 0.00 | 0.06 | 0.00 | 95 | 1013.4 |
| 20260507021528 | 44 | 340 | 4.0 | 6.0 | 0.00 | 0.06 | 0.00 | 95 | 1013.4 |
| 20260507021028 | 44 | 323 | 4.0 | 6.0 | 0.00 | 0.06 | 0.00 | 95 | 1013.4 |
| 20260507020527 | 44 | 10 | 3.0 | 6.0 | 0.00 | 0.06 | 0.00 | 95 | 1013.4 |
| 20260507020258 | 44 | 293 | 3.0 | 4.0 | 0.00 | 0.06 | 0.00 | 95 | 1013.3 |
| 20260507015805 | 44 | 318 | 3.0 | 4.0 | 0.00 | 0.06 | 0.00 | 94 | 1013.3 |
| 20260507015305 | 44 | 308 | 2.0 | 4.0 | 0.00 | 0.06 | 0.00 | 93 | 1013.3 |
| 20260507014526 | 44 | 310 | 2.0 | 3.0 | 0.00 | 0.06 | 0.00 | 91 | 1013.2 |
| 20260507014031 | 45 | 314 | 2.0 | 4.0 | 0.00 | 0.06 | 0.00 | 88 | 1013.2 |
| 20260507014026 | 44 | 283 | 2.0 | 3.0 | 0.00 | 0.06 | 0.00 | 89 | 1013.2 |
| 20260507013023 | 45 | 5 | 3.0 | 5.0 | 0.00 | 0.06 | 0.00 | 87 | 1013.2 |
| 20260507012519 | 45 | 15 | 4.0 | 6.0 | 0.00 | 0.06 | 0.00 | 87 | 1013.3 |
| 20260507012016 | 45 | 30 | 6.0 | 7.0 | 0.00 | 0.06 | 0.00 | 85 | 1013.2 |
| 20260507011517 | 45 | 24 | 6.0 | 9.0 | 0.00 | 0.06 | 0.00 | 85 | 1013.1 |
| 20260507011017 | 46 | 25 | 7.0 | 9.0 | 0.00 | 0.06 | 0.00 | 85 | 1013.1 |
| 20260507010517 | 46 | 16 | 7.0 | 9.0 | 0.00 | 0.06 | 0.00 | 86 | 1013.0 |
| 20260507010017 | 45 | 18 | 8.0 | 10.0 | 0.00 | 0.06 | 0.00 | 87 | 1013.0 |
| 20260507005747 | 45 | 13 | 7.0 | 10.0 | 0.00 | 0.06 | 0.00 | 88 | 1013.0 |
| 20260507005257 | 45 | 4 | 6.0 | 9.0 | 0.00 | 0.06 | 0.00 | 90 | 1013.0 |
| 20260507004517 | 45 | 357 | 5.0 | 7.0 | 0.00 | 0.06 | 0.00 | 92 | 1013.0 |
| 20260507004015 | 45 | 3 | 4.0 | 7.0 | 0.00 | 0.06 | 0.00 | 93 | 1013.0 |
| 20260507003514 | 46 | 337 | 5.0 | 7.0 | 0.00 | 0.06 | 0.00 | 92 | 1013.0 |
| 20260507003011 | 46 | 352 | 5.0 | 8.0 | 0.00 | 0.06 | 0.00 | 91 | 1012.9 |
| 20260507002512 | 46 | 336 | 6.0 | 8.0 | 0.00 | 0.06 | 0.00 | 91 | 1012.9 |
| 20260507002254 | 46 | 350 | 6.0 | 9.0 | 0.00 | 0.06 | 0.00 | 91 | 1012.9 |
| 20260507001508 | 46 | 334 | 7.0 | 10.0 | 0.00 | 0.06 | 0.00 | 90 | 1012.9 |
| 20260507001011 | 47 | 353 | 7.0 | 10.0 | 0.00 | 0.06 | 0.00 | 90 | 1012.9 |
| 20260507000510 | 47 | 339 | 6.0 | 9.0 | 0.00 | 0.06 | 0.00 | 89 | 1012.8 |
| 20260507000246 | 47 | 353 | 6.0 | 9.0 | 0.00 | 0.06 | 0.00 | 89 | 1012.8 |
| 20260506235509 | 47 | 344 | 6.0 | 9.0 | 0.00 | 0.06 | 0.00 | 89 | 1012.8 |
| 20260506235009 | 48 | 353 | 7.0 | 10.0 | 0.00 | 0.06 | 0.00 | 88 | 1012.8 |
| 20260506234733 | 48 | 343 | 7.0 | 10.0 | 0.00 | 0.06 | 0.00 | 87 | 1012.7 |
| 20260506234008 | 48 | 347 | 7.0 | 9.0 | 0.00 | 0.06 | 0.00 | 87 | 1012.7 |
| 20260506233508 | 49 | 337 | 7.0 | 9.0 | 0.00 | 0.06 | 0.00 | 85 | 1012.7 |
| 20260506233007 | 49 | 337 | 7.0 | 9.0 | 0.00 | 0.06 | 0.00 | 85 | 1012.6 |
| 20260506232505 | 49 | 343 | 7.0 | 9.0 | 0.00 | 0.06 | 0.00 | 84 | 1012.6 |
| 20260506232004 | 49 | 358 | 7.0 | 9.0 | 0.00 | 0.06 | 0.00 | 83 | 1012.6 |
| 20260506231504 | 49 | 336 | 7.0 | 10.0 | 0.00 | 0.06 | 0.00 | 82 | 1012.6 |
| 20260506231004 | 50 | 359 | 7.0 | 11.0 | 0.00 | 0.06 | 0.00 | 82 | 1012.5 |
| 20260506230504 | 50 | 359 | 7.0 | 11.0 | 0.00 | 0.06 | 0.00 | 81 | 1012.5 |
| 20260506230237 | 50 | 349 | 7.0 | 10.0 | 0.00 | 0.06 | 0.00 | 81 | 1012.5 |
| 20260506225505 | 50 | 343 | 7.0 | 10.0 | 0.00 | 0.06 | 0.00 | 81 | 1012.5 |
| 20260506225002 | 50 | 347 | 8.0 | 12.0 | 0.00 | 0.06 | 0.00 | 80 | 1012.4 |
| 20260506224504 | 50 | 34 | 9.0 | 12.0 | 0.00 | 0.06 | 0.00 | 80 | 1012.3 |
| 20260506224003 | 50 | 7 | 9.0 | 11.0 | 0.00 | 0.06 | 0.00 | 80 | 1012.3 |
| 20260506223506 | 50 | 8 | 9.0 | 11.0 | 0.00 | 0.06 | 0.00 | 80 | 1012.4 |
| 20260506223003 | 50 | 359 | 9.0 | 11.0 | 0.00 | 0.06 | 0.00 | 80 | 1012.4 |
| 20260506222503 | 51 | 8 | 8.0 | 11.0 | 0.00 | 0.06 | 0.00 | 79 | 1012.4 |
| 20260506222001 | 50 | 3 | 7.0 | 11.0 | 0.00 | 0.06 | 0.00 | 79 | 1012.3 |
| 20260506221751 | 51 | 14 | 7.0 | 9.0 | 0.00 | 0.06 | 0.00 | 80 | 1012.4 |
| 20260506221005 | 51 | 11 | 6.0 | 9.0 | 0.00 | 0.06 | 0.00 | 79 | 1012.3 |
| 20260506220732 | 51 | 338 | 5.0 | 8.0 | 0.00 | 0.06 | 0.00 | 78 | 1012.3 |
| 20260506220229 | 51 | 1 | 6.0 | 8.0 | 0.00 | 0.06 | 0.06 | 78 | 1012.3 |
| 20260506215500 | 51 | 56 | 7.0 | 9.0 | 0.00 | 0.06 | 0.06 | 77 | 1012.2 |
| 20260506214959 | 51 | 8 | 7.0 | 9.0 | 0.00 | 0.06 | 0.06 | 76 | 1012.2 |
| 20260506214500 | 51 | 18 | 8.0 | 10.0 | 0.00 | 0.06 | 0.06 | 77 | 1012.1 |
| 20260506213959 | 51 | 9 | 8.0 | 10.0 | 0.00 | 0.06 | 0.06 | 76 | 1012.1 |
| 20260506213500 | 51 | 23 | 8.0 | 10.0 | 0.00 | 0.06 | 0.06 | 76 | 1012.1 |
| 20260506212959 | 51 | 19 | 7.0 | 10.0 | 0.00 | 0.06 | 0.06 | 76 | 1012.1 |
| 20260506212500 | 51 | 8 | 8.0 | 11.0 | 0.00 | 0.06 | 0.06 | 76 | 1012.0 |
| 20260506211956 | 52 | 14 | 9.0 | 12.0 | 0.00 | 0.06 | 0.06 | 77 | 1011.9 |
| 20260506211456 | 52 | 17 | 9.0 | 12.0 | 0.00 | 0.06 | 0.06 | 76 | 1011.9 |
| 20260506210956 | 52 | 350 | 8.0 | 13.0 | 0.00 | 0.06 | 0.06 | 76 | 1011.8 |
| 20260506210457 | 52 | 12 | 8.0 | 13.0 | 0.00 | 0.06 | 0.06 | 75 | 1011.8 |
| 20260506205953 | 52 | 339 | 7.0 | 10.0 | 0.00 | 0.06 | 0.06 | 76 | 1011.8 |
| 20260506205722 | 52 | 349 | 7.0 | 10.0 | 0.00 | 0.06 | 0.06 | 76 | 1011.7 |
| 20260506204951 | 52 | 1 | 7.0 | 10.0 | 0.00 | 0.06 | 0.06 | 76 | 1011.7 |
| 20260506204450 | 52 | 357 | 7.0 | 11.0 | 0.00 | 0.06 | 0.06 | 76 | 1011.7 |
| 20260506203950 | 52 | 358 | 7.0 | 12.0 | 0.00 | 0.06 | 0.06 | 77 | 1011.7 |
| 20260506203450 | 52 | 343 | 7.0 | 12.0 | 0.00 | 0.06 | 0.06 | 77 | 1011.7 |
| 20260506202950 | 52 | 358 | 6.0 | 10.0 | 0.00 | 0.06 | 0.06 | 77 | 1011.7 |
| 20260506202451 | 52 | 338 | 6.0 | 10.0 | 0.00 | 0.06 | 0.06 | 77 | 1011.6 |
| 20260506202221 | 52 | 355 | 6.0 | 8.0 | 0.00 | 0.06 | 0.06 | 76 | 1011.6 |
| 20260506201451 | 52 | 2 | 6.0 | 8.0 | 0.00 | 0.06 | 0.06 | 75 | 1011.6 |
| 20260506200948 | 53 | 331 | 6.0 | 11.0 | 0.00 | 0.06 | 0.06 | 74 | 1011.6 |
| 20260506200448 | 53 | 345 | 7.0 | 11.0 | 0.00 | 0.06 | 0.06 | 72 | 1011.5 |
| 20260506195948 | 53 | 338 | 7.0 | 10.0 | 0.00 | 0.06 | 0.06 | 70 | 1011.5 |
| 20260506195715 | 53 | 345 | 6.0 | 10.0 | 0.00 | 0.06 | 0.06 | 66 | 1011.5 |
| 20260506194946 | 53 | 333 | 4.0 | 7.0 | 0.00 | 0.06 | 0.06 | 67 | 1011.4 |
| 20260506194446 | 53 | 341 | 3.0 | 5.0 | 0.00 | 0.06 | 0.06 | 66 | 1011.4 |
| 20260506194230 | 53 | 1 | 3.0 | 5.0 | 0.00 | 0.06 | 0.06 | 67 | 1011.4 |
| 20260506193446 | 53 | 341 | 2.0 | 4.0 | 0.00 | 0.06 | 0.06 | 66 | 1011.3 |
| 20260506192947 | 53 | 23 | 2.0 | 4.0 | 0.00 | 0.06 | 0.06 | 66 | 1011.3 |
| 20260506192447 | 53 | 351 | 2.0 | 4.0 | 0.00 | 0.06 | 0.06 | 68 | 1011.2 |
| 20260506191946 | 53 | 60 | 3.0 | 11.0 | 0.00 | 0.06 | 0.06 | 67 | 1011.1 |
| 20260506191446 | 53 | 71 | 6.0 | 11.0 | 0.00 | 0.06 | 0.06 | 67 | 1011.1 |
| 20260506191227 | 53 | 34 | 9.0 | 14.0 | 0.00 | 0.06 | 0.06 | 64 | 1010.9 |
| 20260506190443 | 53 | 19 | 10.0 | 15.0 | 0.00 | 0.06 | 0.06 | 66 | 1010.9 |
| 20260506185940 | 53 | 11 | 10.0 | 15.0 | 0.00 | 0.06 | 0.06 | 64 | 1010.8 |
| 20260506185440 | 53 | 11 | 8.0 | 13.0 | 0.00 | 0.06 | 0.06 | 65 | 1010.8 |
| 20260506184940 | 53 | 19 | 8.0 | 12.0 | 0.00 | 0.06 | 0.06 | 68 | 1010.7 |
| 20260506184438 | 53 | 14 | 9.0 | 12.0 | 0.00 | 0.06 | 0.06 | 65 | 1010.6 |
| 20260506183938 | 53 | 351 | 8.0 | 10.0 | 0.00 | 0.06 | 0.06 | 65 | 1010.6 |
| 20260506183437 | 53 | 16 | 8.0 | 10.0 | 0.00 | 0.06 | 0.06 | 66 | 1010.6 |
| 20260506182938 | 53 | 24 | 8.0 | 11.0 | 0.00 | 0.06 | 0.06 | 65 | 1010.5 |
| 20260506182437 | 54 | 26 | 7.0 | 11.0 | 0.00 | 0.06 | 0.06 | 66 | 1010.4 |
| 20260506181937 | 54 | 29 | 6.0 | 9.0 | 0.00 | 0.06 | 0.06 | 65 | 1010.5 |
| 20260506181438 | 54 | 31 | 5.0 | 8.0 | 0.00 | 0.06 | 0.06 | 65 | 1010.4 |
| 20260506180939 | 54 | 3 | 5.0 | 7.0 | 0.00 | 0.06 | 0.06 | 66 | 1010.4 |
| 20260506180438 | 54 | 19 | 5.0 | 7.0 | 0.00 | 0.06 | 0.06 | 64 | 1010.3 |
| 20260506175938 | 54 | 30 | 3.0 | 5.0 | 0.00 | 0.06 | 0.06 | 65 | 1010.2 |
| 20260506175438 | 54 | 3 | 3.0 | 6.0 | 0.00 | 0.06 | 0.06 | 65 | 1010.2 |
| 20260506174936 | 54 | 26 | 4.0 | 6.0 | 0.00 | 0.06 | 0.06 | 63 | 1010.1 |
| 20260506174432 | 54 | 30 | 4.0 | 6.0 | 0.00 | 0.06 | 0.06 | 63 | 1010.0 |
| 20260506173933 | 54 | 30 | 4.0 | 6.0 | 0.00 | 0.07 | 0.06 | 63 | 1010.0 |
| 20260506173432 | 54 | 28 | 4.0 | 6.0 | 0.00 | 0.07 | 0.06 | 63 | 1009.9 |
| 20260506172932 | 54 | 26 | 4.0 | 6.0 | 0.00 | 0.07 | 0.06 | 62 | 1009.9 |
| 20260506172431 | 54 | 33 | 4.0 | 6.0 | 0.00 | 0.07 | 0.06 | 62 | 1009.8 |
| 20260506171931 | 55 | 35 | 4.0 | 6.0 | 0.00 | 0.07 | 0.06 | 58 | 1009.7 |
| 20260506171431 | 55 | 63 | 4.0 | 6.0 | 0.00 | 0.07 | 0.06 | 58 | 1009.7 |
| 20260506170932 | 55 | 63 | 4.0 | 7.0 | 0.00 | 0.07 | 0.06 | 59 | 1009.7 |
| 20260506170438 | 55 | 43 | 4.0 | 7.0 | 0.00 | 0.07 | 0.06 | 58 | 1009.6 |
| 20260506165938 | 55 | 30 | 4.0 | 7.0 | 0.00 | 0.07 | 0.06 | 59 | 1009.6 |
| 20260506165435 | 55 | 38 | 4.0 | 7.0 | 0.00 | 0.07 | 0.06 | 60 | 1009.6 |
| 20260506164932 | 55 | 37 | 5.0 | 8.0 | 0.00 | 0.07 | 0.06 | 62 | 1009.6 |
| 20260506164437 | 55 | 65 | 6.0 | 9.0 | 0.00 | 0.08 | 0.06 | 57 | 1009.6 |
| 20260506164430 | 55 | 34 | 6.0 | 9.0 | 0.00 | 0.08 | 0.06 | 60 | 1009.6 |
| 20260506163427 | 55 | 38 | 6.0 | 9.0 | 0.00 | 0.08 | 0.06 | 55 | 1009.6 |
| 20260506162928 | 55 | 44 | 6.0 | 11.0 | 0.00 | 0.08 | 0.06 | 57 | 1009.6 |
| 20260506162428 | 55 | 52 | 6.0 | 11.0 | 0.00 | 0.08 | 0.06 | 59 | 1009.6 |
| 20260506161928 | 55 | 58 | 6.0 | 9.0 | 0.00 | 0.09 | 0.06 | 57 | 1009.6 |
| 20260506161427 | 55 | 33 | 6.0 | 11.0 | 0.00 | 0.09 | 0.06 | 56 | 1009.5 |
| 20260506160928 | 55 | 43 | 7.0 | 12.0 | 0.00 | 0.09 | 0.06 | 54 | 1009.5 |
| 20260506160427 | 55 | 48 | 8.0 | 12.0 | 0.00 | 0.09 | 0.06 | 57 | 1009.5 |
| 20260506155926 | 55 | 44 | 8.0 | 15.0 | 0.00 | 0.09 | 0.06 | 57 | 1009.5 |
| 20260506155425 | 55 | 63 | 8.0 | 15.0 | 0.00 | 0.09 | 0.06 | 58 | 1009.6 |
| 20260506155159 | 55 | 34 | 8.0 | 16.0 | 0.00 | 0.09 | 0.06 | 58 | 1009.5 |
| 20260506154925 | 55 | 38 | 8.0 | 13.0 | 0.00 | 0.09 | 0.06 | 59 | 1009.6 |
| 20260506153920 | 55 | 41 | 9.0 | 16.0 | 0.00 | 0.09 | 0.06 | 57 | 1009.5 |
| 20260506153419 | 55 | 17 | 9.0 | 15.0 | 0.00 | 0.09 | 0.06 | 60 | 1009.5 |
| 20260506152916 | 55 | 33 | 8.0 | 13.0 | 0.00 | 0.09 | 0.06 | 59 | 1009.5 |
| 20260506152416 | 55 | 12 | 7.0 | 13.0 | 0.00 | 0.09 | 0.06 | 58 | 1009.5 |
| 20260506152147 | 55 | 37 | 7.0 | 13.0 | 0.00 | 0.09 | 0.06 | 57 | 1009.6 |
| 20260506151417 | 55 | 31 | 7.0 | 13.0 | 0.00 | 0.09 | 0.06 | 57 | 1009.5 |
| 20260506150917 | 55 | 48 | 8.0 | 13.0 | 0.00 | 0.09 | 0.06 | 58 | 1009.5 |
| 20260506150417 | 55 | 57 | 8.0 | 12.0 | 0.00 | 0.09 | 0.06 | 56 | 1009.5 |
| 20260506150148 | 55 | 38 | 9.0 | 17.0 | 0.00 | 0.09 | 0.06 | 57 | 1009.5 |
| 20260506145414 | 55 | 43 | 10.0 | 19.0 | 0.00 | 0.09 | 0.06 | 57 | 1009.4 |
| 20260506144911 | 55 | 35 | 10.0 | 19.0 | 0.00 | 0.09 | 0.06 | 57 | 1009.4 |
| 20260506144408 | 55 | 37 | 8.0 | 13.0 | 0.00 | 0.09 | 0.06 | 57 | 1009.4 |
| 20260506143908 | 55 | 46 | 8.0 | 12.0 | 0.00 | 0.09 | 0.06 | 57 | 1009.4 |
| 20260506143406 | 55 | 37 | 8.0 | 13.0 | 0.00 | 0.09 | 0.06 | 59 | 1009.4 |
| 20260506142906 | 55 | 56 | 8.0 | 14.0 | 0.00 | 0.09 | 0.06 | 56 | 1009.3 |
| 20260506142406 | 54 | 42 | 8.0 | 14.0 | 0.00 | 0.09 | 0.06 | 58 | 1009.4 |
| 20260506141906 | 54 | 37 | 9.0 | 14.0 | 0.00 | 0.09 | 0.06 | 57 | 1009.4 |
| 20260506141406 | 54 | 42 | 9.0 | 17.0 | 0.00 | 0.09 | 0.06 | 58 | 1009.5 |
| 20260506141137 | 54 | 69 | 11.0 | 19.0 | 0.00 | 0.09 | 0.06 | 58 | 1009.4 |
| 20260506140407 | 54 | 34 | 11.0 | 19.0 | 0.00 | 0.09 | 0.06 | 58 | 1009.3 |
| 20260506135907 | 55 | 36 | 9.0 | 16.0 | 0.00 | 0.09 | 0.06 | 56 | 1009.4 |
| 20260506135403 | 55 | 39 | 9.0 | 16.0 | 0.00 | 0.09 | 0.06 | 57 | 1009.4 |
| 20260506134902 | 55 | 27 | 9.0 | 16.0 | 0.00 | 0.09 | 0.06 | 55 | 1009.3 |
| 20260506134636 | 55 | 60 | 9.0 | 16.0 | 0.00 | 0.09 | 0.06 | 53 | 1009.3 |
| 20260506133900 | 55 | 31 | 9.0 | 16.0 | 0.00 | 0.09 | 0.06 | 53 | 1009.2 |
| 20260506133400 | 56 | 36 | 9.0 | 16.0 | 0.00 | 0.09 | 0.06 | 54 | 1009.3 |
| 20260506132858 | 55 | 31 | 12.0 | 24.0 | 0.00 | 0.09 | 0.06 | 53 | 1009.2 |
| 20260506132357 | 55 | 38 | 16.0 | 24.0 | 0.00 | 0.09 | 0.06 | 52 | 1009.1 |
| 20260506131855 | 55 | 16 | 18.0 | 26.0 | 0.00 | 0.09 | 0.06 | 51 | 1009.1 |
| 20260506131355 | 55 | 23 | 18.0 | 26.0 | 0.00 | 0.09 | 0.06 | 52 | 1008.8 |
| 20260506130855 | 55 | 31 | 17.0 | 24.0 | 0.00 | 0.09 | 0.06 | 52 | 1008.9 |
| 20260506130356 | 55 | 25 | 14.0 | 21.0 | 0.00 | 0.09 | 0.05 | 52 | 1009.0 |
| 20260506125856 | 56 | 27 | 13.0 | 23.0 | 0.00 | 0.09 | 0.05 | 53 | 1009.0 |
| 20260506125632 | 56 | 36 | 14.0 | 23.0 | 0.00 | 0.09 | 0.05 | 52 | 1008.9 |
| 20260506124856 | 56 | 21 | 15.0 | 21.0 | 0.00 | 0.09 | 0.05 | 52 | 1008.9 |
| 20260506124354 | 56 | 14 | 14.0 | 21.0 | 0.00 | 0.09 | 0.05 | 52 | 1008.8 |
| 20260506123855 | 56 | 32 | 12.0 | 21.0 | 0.00 | 0.09 | 0.05 | 58 | 1008.7 |
| 20260506123355 | 56 | 39 | 12.0 | 20.0 | 0.00 | 0.09 | 0.05 | 60 | 1008.6 |
| 20260506122855 | 55 | 28 | 13.0 | 20.0 | 0.00 | 0.09 | 0.05 | 62 | 1008.7 |
| 20260506122354 | 55 | 29 | 11.0 | 19.0 | 0.00 | 0.09 | 0.05 | 60 | 1008.7 |
| 20260506122123 | 55 | 11 | 9.0 | 15.0 | 0.00 | 0.09 | 0.05 | 60 | 1008.7 |
| 20260506121350 | 55 | 11 | 9.0 | 14.0 | 0.00 | 0.09 | 0.05 | 63 | 1008.8 |
| 20260506120849 | 54 | 9 | 9.0 | 14.0 | 0.00 | 0.09 | 0.05 | 63 | 1008.8 |
| 20260506120350 | 54 | 5 | 8.0 | 11.0 | 0.00 | 0.09 | 0.05 | 66 | 1008.8 |
| 20260506115849 | 54 | 3 | 8.0 | 12.0 | 0.00 | 0.09 | 0.05 | 70 | 1008.8 |
| 20260506115350 | 54 | 20 | 9.0 | 15.0 | 0.00 | 0.09 | 0.05 | 69 | 1008.8 |
| 20260506114849 | 54 | 7 | 10.0 | 15.0 | 0.00 | 0.09 | 0.05 | 69 | 1008.8 |
| 20260506114350 | 54 | 11 | 11.0 | 16.0 | 0.00 | 0.09 | 0.05 | 70 | 1008.8 |
| 20260506113850 | 54 | 10 | 11.0 | 16.0 | 0.00 | 0.09 | 0.05 | 71 | 1008.7 |
| 20260506113350 | 53 | 6 | 11.0 | 16.0 | 0.00 | 0.09 | 0.05 | 72 | 1008.8 |
| 20260506112850 | 53 | 3 | 10.0 | 18.0 | 0.00 | 0.09 | 0.05 | 74 | 1008.9 |
| 20260506112350 | 53 | 16 | 12.0 | 18.0 | 0.00 | 0.09 | 0.05 | 74 | 1008.9 |
| 20260506111849 | 53 | 11 | 12.0 | 17.0 | 0.00 | 0.09 | 0.05 | 74 | 1008.8 |
| 20260506111347 | 53 | 1 | 12.0 | 18.0 | 0.00 | 0.09 | 0.05 | 75 | 1008.8 |
| 20260506110848 | 53 | 6 | 12.0 | 18.0 | 0.00 | 0.09 | 0.05 | 76 | 1008.7 |
| 20260506110344 | 53 | 0 | 13.0 | 19.0 | 0.00 | 0.09 | 0.05 | 77 | 1008.8 |
| 20260506105845 | 53 | 21 | 14.0 | 25.0 | 0.00 | 0.09 | 0.05 | 77 | 1008.7 |
| 20260506105345 | 53 | 18 | 15.0 | 25.0 | 0.00 | 0.09 | 0.05 | 78 | 1008.6 |
| 20260506104844 | 53 | 13 | 15.0 | 21.0 | 0.00 | 0.09 | 0.05 | 76 | 1008.7 |
| 20260506104345 | 53 | 8 | 15.0 | 24.0 | 0.00 | 0.09 | 0.05 | 77 | 1008.5 |
| 20260506103845 | 54 | 13 | 17.0 | 24.0 | 0.00 | 0.09 | 0.05 | 77 | 1008.6 |
| 20260506103621 | 54 | 9 | 17.0 | 24.0 | 0.00 | 0.09 | 0.05 | 74 | 1008.2 |
| 20260506103616 | 54 | 8 | 16.0 | 22.0 | 0.01 | 0.09 | 0.05 | 73 | 1008.5 |
| 20260506102343 | 55 | 6 | 14.0 | 21.0 | 0.01 | 0.09 | 0.05 | 71 | 1008.5 |
| 20260506101842 | 55 | 13 | 13.0 | 17.0 | 0.02 | 0.09 | 0.05 | 68 | 1008.4 |
| 20260506101339 | 55 | 9 | 14.0 | 22.0 | 0.02 | 0.09 | 0.05 | 65 | 1008.4 |
| 20260506100836 | 55 | 4 | 15.0 | 22.0 | 0.02 | 0.08 | 0.05 | 67 | 1008.2 |
| 20260506100604 | 55 | 6 | 14.0 | 22.0 | 0.02 | 0.08 | 0.05 | 68 | 1008.1 |
| 20260506095834 | 55 | 20 | 14.0 | 22.0 | 0.02 | 0.08 | 0.05 | 68 | 1008.1 |
| 20260506095337 | 56 | 33 | 15.0 | 22.0 | 0.04 | 0.08 | 0.05 | 65 | 1008.3 |
| 20260506094836 | 56 | 16 | 14.0 | 22.0 | 0.04 | 0.08 | 0.05 | 65 | 1008.1 |
| 20260506094335 | 56 | 30 | 13.0 | 25.0 | 0.04 | 0.08 | 0.05 | 65 | 1008.0 |
| 20260506093835 | 56 | 43 | 16.0 | 28.0 | 0.04 | 0.08 | 0.05 | 64 | 1008.1 |
| 20260506093601 | 55 | 28 | 19.0 | 28.0 | 0.04 | 0.08 | 0.05 | 64 | 1008.1 |
| 20260506092835 | 55 | 25 | 20.0 | 28.0 | 0.04 | 0.08 | 0.04 | 64 | 1007.9 |
| 20260506092335 | 55 | 16 | 17.0 | 26.0 | 0.04 | 0.07 | 0.04 | 66 | 1007.7 |
| 20260506091835 | 55 | 14 | 15.0 | 23.0 | 0.03 | 0.07 | 0.03 | 67 | 1007.7 |
| 20260506091336 | 55 | 29 | 14.0 | 22.0 | 0.03 | 0.07 | 0.03 | 67 | 1008.0 |
| 20260506090833 | 55 | 27 | 16.0 | 26.0 | 0.03 | 0.07 | 0.03 | 65 | 1007.8 |
| 20260506090329 | 55 | 31 | 19.0 | 28.0 | 0.02 | 0.06 | 0.02 | 68 | 1007.9 |
| 20260506085826 | 55 | 32 | 18.0 | 28.0 | 0.02 | 0.06 | 0.02 | 66 | 1007.8 |
| 20260506085322 | 55 | 30 | 15.0 | 26.0 | 0.01 | 0.05 | 0.01 | 67 | 1007.5 |
| 20260506084823 | 55 | 15 | 14.0 | 26.0 | 0.00 | 0.04 | 0.01 | 66 | 1007.9 |
| 20260506084322 | 55 | 44 | 16.0 | 24.0 | 0.00 | 0.04 | 0.00 | 68 | 1007.5 |
| 20260506083823 | 55 | 22 | 18.0 | 24.0 | 0.00 | 0.04 | 0.00 | 67 | 1007.8 |
| 20260506083323 | 55 | 16 | 17.0 | 23.0 | 0.00 | 0.04 | 0.00 | 67 | 1007.9 |
| 20260506082823 | 54 | 10 | 15.0 | 23.0 | 0.00 | 0.04 | 0.00 | 70 | 1007.6 |
| 20260506082323 | 54 | 7 | 13.0 | 19.0 | 0.00 | 0.04 | 0.00 | 76 | 1007.8 |
| 20260506081822 | 54 | 358 | 13.0 | 17.0 | 0.00 | 0.04 | 0.00 | 78 | 1007.7 |
| 20260506081333 | 54 | 336 | 11.0 | 16.0 | 0.00 | 0.04 | 0.00 | 78 | 1007.8 |
| 20260506081325 | 54 | 8 | 12.0 | 17.0 | 0.00 | 0.04 | 0.00 | 77 | 1007.7 |
| 20260506080323 | 54 | 14 | 10.0 | 15.0 | 0.00 | 0.04 | 0.00 | 78 | 1007.8 |
| 20260506073320 | 52 | 14 | 10.0 | 17.0 | 0.00 | 0.04 | 0.00 | 82 | 1007.6 |
| 20260506072821 | 52 | 327 | 9.0 | 13.0 | 0.00 | 0.04 | 0.00 | 87 | 1007.7 |
| 20260506072321 | 52 | 357 | 10.0 | 15.0 | 0.00 | 0.04 | 0.00 | 87 | 1007.8 |
| 20260506071821 | 51 | 343 | 10.0 | 16.0 | 0.00 | 0.04 | 0.00 | 88 | 1007.8 |
| 20260506071320 | 51 | 335 | 11.0 | 17.0 | 0.00 | 0.04 | 0.00 | 88 | 1007.7 |
| 20260506070821 | 51 | 337 | 12.0 | 17.0 | 0.00 | 0.04 | 0.00 | 88 | 1007.7 |
| 20260506070559 | 51 | 339 | 11.0 | 16.0 | 0.00 | 0.04 | 0.00 | 88 | 1007.7 |
| 20260506062315 | 50 | 330 | 10.0 | 16.0 | 0.00 | 0.04 | 0.00 | 88 | 1007.6 |
| 20260506061816 | 50 | 352 | 9.0 | 14.0 | 0.00 | 0.04 | 0.00 | 89 | 1007.5 |
| 20260506061316 | 50 | 344 | 9.0 | 14.0 | 0.00 | 0.04 | 0.00 | 89 | 1007.5 |
| 20260506060815 | 50 | 341 | 9.0 | 14.0 | 0.00 | 0.04 | 0.00 | 89 | 1007.5 |
| 20260506060547 | 50 | 343 | 9.0 | 14.0 | 0.00 | 0.04 | 0.00 | 89 | 1007.6 |
| 20260506051303 | 50 | 345 | 9.0 | 14.0 | 0.00 | 0.04 | 0.00 | 91 | 1007.4 |
| 20260506050803 | 50 | 331 | 8.0 | 12.0 | 0.00 | 0.04 | 0.00 | 91 | 1007.4 |
| 20260506050304 | 49 | 26 | 8.0 | 12.0 | 0.00 | 0.04 | 0.00 | 92 | 1007.5 |
| 20260506044804 | 49 | 355 | 6.0 | 10.0 | 0.00 | 0.04 | 0.00 | 97 | 1007.5 |
| 20260506044302 | 49 | 339 | 6.0 | 10.0 | 0.00 | 0.04 | 0.00 | 98 | 1007.6 |
| 20260506043803 | 49 | 354 | 7.0 | 11.0 | 0.00 | 0.04 | 0.00 | 98 | 1007.6 |
| 20260506043302 | 49 | 321 | 8.0 | 12.0 | 0.00 | 0.04 | 0.00 | 97 | 1007.7 |
| 20260506042803 | 49 | 330 | 9.0 | 12.0 | 0.00 | 0.04 | 0.00 | 96 | 1007.7 |
| 20260506042305 | 49 | 339 | 8.0 | 12.0 | 0.00 | 0.04 | 0.00 | 95 | 1007.6 |
| 20260506041802 | 49 | 325 | 7.0 | 11.0 | 0.00 | 0.04 | 0.00 | 93 | 1007.6 |
| 20260506041303 | 49 | 343 | 6.0 | 9.0 | 0.00 | 0.04 | 0.00 | 93 | 1007.7 |
| 20260506040803 | 49 | 324 | 6.0 | 9.0 | 0.00 | 0.04 | 0.00 | 93 | 1007.6 |
| 20260506040303 | 49 | 340 | 6.0 | 9.0 | 0.00 | 0.04 | 0.00 | 92 | 1007.7 |